Idaho Falls, ID

2:02 AM MDT on July 22, 2017 (GMT -0600)
Fanning

Weather History for KIDA - October, 2012

Change the Weather History Date:

Tuesday, October 23, 2012

  Actual Average Record
Temperature  
Mean Temperature 40 °F 43 °F  
Max Temperature 46 °F 56 °F 71 °F (1992)
Min Temperature 34 °F 29 °F 16 °F (1980)
Degree Days  
Heating Degree Days 25 22  
Month to date heating degree days 413 422  
Since 1 July heating degree days 568 730  
Cooling Degree Days 0 0  
Month to date cooling degree days 0 0  
Year to date cooling degree days 444 264  
Moisture  
Dew Point 30 °F    
Average Humidity 68    
Maximum Humidity 85    
Minimum Humidity 51    
Precipitation  
Precipitation 0.02 in 0.02 in 0.39 in (2004)
Month to date precipitation 0.47 0.62  
Year to date precipitation 4.79 8.44  
Sea Level Pressure  
Sea Level Pressure 29.86 in    
Wind  
Wind Speed 15 mph (SW)    
Max Wind Speed 30 mph    
Max Gust Speed 38 mph    
Visibility 8 miles    
Events Fog , Rain , Snow    
T = Trace of Precipitation, MM = Missing Value Source: NWS Daily Summary

Daily Weather History Graph

Daily Weather History Graph

Search for Another Location

Airport or City:

Trip Planner

Search our weather history database for the weather conditions in past years. The results will help you decide how hot, cold, wet, or windy it might be!

Date:

Astronomy

Oct. 23, 2012 Rise Set
Actual Time 7:52 AM MDT 6:31 PM MDT
Civil Twilight 7:23 AM MDT 7:00 PM MDT
Nautical Twilight 6:50 AM MDT 7:34 PM MDT
Astronomical Twilight 6:17 AM MDT 8:07 PM MDT
Moon 3:26 PM MDT (10/23) 1:38 AM MDT (10/23)
Length of Visible Light 11h 36m
Length of Day
10h 38m
Waxing Gibbous, 67% of the Moon is Illuminated
Oct 23
Waxing Gibbous
Oct 29
Full
Nov 6
Last Quarter
Nov 13
New
Nov 20
First Quarter

Hourly Weather History & Observations

Time (MDT) Temp. Windchill Dew Point Humidity Pressure Visibility Wind Dir Wind Speed Gust Speed Precip Events Conditions
12:53 AM 39.0 °F 30.3 °F 33.1 °F 79% 29.76 in 10.0 mi South 16.1 mph - N/A   Overcast
1:53 AM 39.9 °F 33.4 °F 33.1 °F 77% 29.76 in 10.0 mi SSW 10.4 mph - N/A   Overcast
2:53 AM 39.0 °F 32.8 °F 32.0 °F 76% 29.76 in 10.0 mi SSW 9.2 mph - N/A   Overcast
3:53 AM 37.9 °F 29.6 °F 33.1 °F 83% 29.73 in 10.0 mi SSW 13.8 mph - N/A   Overcast
4:53 AM 37.9 °F 28.9 °F 32.0 °F 79% 29.76 in 10.0 mi SSW 16.1 mph - N/A   Overcast
5:53 AM 37.9 °F 29.2 °F 30.9 °F 76% 29.79 in 10.0 mi SSW 15.0 mph - N/A   Overcast
6:53 AM 37.9 °F 29.6 °F 30.0 °F 73% 29.82 in 10.0 mi SSW 13.8 mph - N/A   Mostly Cloudy
7:53 AM 36.0 °F 29.6 °F 30.0 °F 79% 29.83 in 10.0 mi SSW 8.1 mph - N/A   Mostly Cloudy
9:53 AM 41.0 °F 33.9 °F 30.0 °F 65% 29.85 in 10.0 mi South 12.7 mph - N/A   Scattered Clouds
10:53 AM 43.0 °F 36.4 °F 30.0 °F 60% 29.85 in 10.0 mi South 12.7 mph 21.9 mph N/A   Scattered Clouds
11:53 AM 44.1 °F 35.9 °F 28.9 °F 55% 29.84 in 10.0 mi South 19.6 mph 25.3 mph N/A   Mostly Cloudy
12:53 PM 39.0 °F 26.8 °F 30.0 °F 70% 29.88 in 2.0 mi West 32.2 mph 38.0 mph 0.00 in Rain Light Rain
12:56 PM 35.6 °F 24.5 °F 30.2 °F 81% 29.87 in 2.0 mi West 20.7 mph 38.0 mph 0.00 in Snow Light Snow
12:59 PM 33.8 °F 22.5 °F 30.2 °F 87% 29.87 in 1.0 mi West 19.6 mph 38.0 mph 0.00 in Snow Light Snow
1:08 PM 33.8 °F 27.7 °F 30.2 °F 87% 29.87 in 0.5 mi SW 6.9 mph 25.3 mph 0.02 in Fog , Snow Snow
1:12 PM 33.8 °F 25.8 °F 32.0 °F 93% 29.87 in 6.0 mi SSW 10.4 mph - 0.02 in Snow Light Snow
1:16 PM 35.6 °F 29.2 °F 33.8 °F 93% 29.86 in 8.0 mi SW 8.1 mph - 0.02 in   Mostly Cloudy
1:27 PM 37.4 °F 28.9 °F 33.8 °F 87% 29.86 in 9.0 mi SW 13.8 mph 18.4 mph 0.02 in   Overcast
1:53 PM 41.0 °F 32.2 °F 34.0 °F 76% 29.87 in 4.0 mi SW 18.4 mph 29.9 mph 0.02 in   Mostly Cloudy
1:57 PM 39.2 °F 27.8 °F 33.8 °F 81% 29.87 in 4.0 mi WSW 27.6 mph 35.7 mph 0.00 in Rain Light Rain
2:11 PM 39.2 °F 29.6 °F 32.0 °F 75% 29.86 in 9.0 mi SW 19.6 mph 33.4 mph 0.00 in   Overcast
2:53 PM 41.0 °F 31.9 °F 30.9 °F 67% 29.89 in 10.0 mi SW 19.6 mph 31.1 mph 0.00 in   Overcast
3:13 PM 41.0 °F 31.6 °F 30.2 °F 65% 29.88 in 10.0 mi SW 20.7 mph 31.1 mph N/A   Overcast
3:53 PM 41.0 °F 31.4 °F 28.0 °F 60% 29.90 in 10.0 mi SW 21.9 mph 31.1 mph N/A   Overcast
4:53 PM 41.0 °F 31.6 °F 26.1 °F 55% 29.93 in 10.0 mi SW 20.7 mph 27.6 mph N/A   Mostly Cloudy
5:53 PM 41.0 °F 32.5 °F 25.0 °F 53% 29.93 in 10.0 mi SW 17.3 mph - N/A   Scattered Clouds
6:53 PM 37.0 °F 28.5 °F 24.1 °F 59% 29.95 in 10.0 mi SW 13.8 mph - N/A   Scattered Clouds
7:53 PM 37.0 °F 29.3 °F 26.1 °F 65% 29.97 in 10.0 mi SSW 11.5 mph - N/A   Clear
8:53 PM 36.0 °F 31.1 °F 26.1 °F 67% 29.98 in 10.0 mi SSW 5.8 mph - N/A   Clear
9:53 PM 35.1 °F 26.9 °F 25.0 °F 67% 29.97 in 10.0 mi SSW 11.5 mph - N/A   Clear
10:53 PM 35.1 °F 27.4 °F 25.0 °F 67% 29.96 in 10.0 mi South 10.4 mph - N/A   Clear